This demonstration page uses our WeatherBlox Daily Observations layout. Learn more.

Left ArrowRight Arrow

40.92501, -98.34201

Hourly Observations for July 3, 2022

Temp ( °F °C ) Dew Point ( °F °C ) Humidity (%) Winds ( mph kmh ) Pressure ( in mb ) Visibility ( mi km ) Precip ( " mm )
12:53 am 00:53 Clear 70 21.1 66 18.9 87 87 SSE 7 11 30.01 1016 10 16 0.00 0.00
1:53 am 01:53 Clear 69 20.6 66 18.9 90 90 SSE 8 13 30.01 1016 10 16 0.00 0.00
2:53 am 02:53 Clear 69 20.6 66 18.9 90 90 SE 5 7 30.02 1017 8 13 0.00 0.00
3:48 am 03:48 Partly Cloudy with Mist and Fog 66 19 64 18 94 94 SE 7 11 30.01 1016 4 6 0.00 0.00
3:53 am 03:53 Partly Cloudy with Mist and Fog 68 20 65 18.3 90 90 SE 8 13 30.02 1017 4 6 0.00 0.00
4:25 am 04:25 Mostly Cloudy with Mist and Fog 68 20 66 18.9 93 93 SSE 9 15 30.00 1016 3 4 0.00 0.00
4:34 am 04:34 Mostly Cloudy with Mist and Fog 68 20 66 18.9 93 93 S 8 13 30.00 1016 1 2 0.00 0.00
4:45 am 04:45 Mostly Cloudy with Fog 68 20 67 19.4 96 96 S 10 17 29.99 1016 1 1 0.00 0.00
4:51 am 04:51 Mostly Cloudy with Fog 68 20 66 19 94 94 SSE 12 19 29.99 1016 0 0 0.00 0.00
4:53 am 04:53 Mostly Cloudy with Fog 68 20 67 19.4 96 96 SSE 12 19 30.01 1016 0 0 0.00 0.00
5:05 am 05:05 Mostly Cloudy with Fog 68 20 67 19.4 96 96 SSE 9 15 29.99 1016 1 1 0.00 0.00
5:23 am 05:23 Cloudy with Mist and Fog 68 20 66 18.9 93 93 SSE 9 15 29.98 1015 1 2 0.00 0.00
5:53 am 05:53 Cloudy with Mist and Fog 68 20 67 19.4 96 96 SSE 10 17 29.99 1016 1 2 0.00 0.00
6:16 am 06:16 Cloudy with Fog 69 20.6 67 19.4 93 93 S 9 15 29.97 1015 1 1 0.00 0.00
6:24 am 06:24 Mostly Cloudy with Fog 69 20.6 67 19.4 93 93 S 10 17 29.98 1015 0 0 0.00 0.00
6:38 am 06:38 Mostly Cloudy with Fog 68 20 67 19.4 96 96 S 13 20 29.97 1015 0 0 0.00 0.00
6:53 am 06:53 Mostly Cloudy with Fog 68 20 67 19.4 96 96 S 10 17 30.00 1016 0 0 0.00 0.00
7:16 am 07:16 Mostly Cloudy with Fog 69 20.6 67 19.4 93 93 S 10 17 29.97 1015 0 0 0.00 0.00
7:38 am 07:38 Cloudy with Mist and Fog 69 20.6 67 19.4 93 93 S 14 22 29.97 1015 1 1 0.00 0.00
7:53 am 07:53 Cloudy with Mist and Fog 69 20.6 68 20 96 96 SSE 7 11 30.00 1016 1 1 0.00 0.00
8:27 am 08:27 Cloudy with Mist and Fog 70 21.1 68 20 93 93 SSE 9 15 29.96 1015 2 2 0.00 0.00
8:34 am 08:34 Cloudy with Mist and Fog 70 21.1 68 20 93 93 SSE 12 19 29.97 1015 3 5 0.00 0.00
8:53 am 08:53 Cloudy with Mist and Fog 70 21.1 68 20 93 93 S 8 13 30.01 1016 3 5 0.00 0.00
9:53 am 09:53 Cloudy with Mist and Fog 72 22.2 68 20 87 87 SSE 10 17 30.02 1017 5 8 0.00 0.00
10:09 am 10:09 Cloudy with Mist and Fog 72 22.2 68 20 87 87 SSE 12 19 29.97 1015 5 8 0.00 0.00
10:53 am 10:53 Cloudy 74 23.3 68 20 82 82 SE 10 17 30.01 1016 10 16 0.00 0.00
11:53 am 11:53 Cloudy 76 24.4 69 20.6 79 79 SE 12 19 29.99 1016 10 16 0.00 0.00
12:12 pm 12:12 Cloudy 77 25 69 20.6 77 77 SSE 12 19 29.93 1013 10 16 0.00 0.00
12:53 pm 12:53 Cloudy 78 25.6 70 21.1 76 76 SSE 14 22 29.99 1016 10 16 0.00 0.00
1:33 pm 13:33 Cloudy 80 26.7 70 21.1 71 71 SSE 16 26 29.91 1013 10 16 0.00 0.00
1:53 pm 13:53 Cloudy 82 27.8 71 21.7 69 69 SE 16 26 29.97 1015 10 16 0.00 0.00
2:53 pm 14:53 Cloudy 82 27.8 71 21.7 69 69 SE 15 24 29.96 1014 10 16 0.00 0.00
3:53 pm 15:53 Cloudy 84 28.9 72 22.2 67 67 SE 15 24 29.95 1014 10 16 0.00 0.00
4:00 pm 16:00 Mostly Cloudy 85 29.4 72 22.2 65 65 ESE 15 24 29.86 1011 10 16 0.00 0.00
4:53 pm 16:53 Partly Cloudy 86 30 72 22.2 63 63 SE 16 26 29.92 1013 10 16 0.00 0.00
5:53 pm 17:53 Mostly Cloudy 85 29.4 73 22.8 68 68 SE 17 28 29.91 1013 10 16 0.00 0.00
6:14 pm 18:14 Mostly Cloudy 85 29.4 73 22.8 68 68 SE 16 26 29.82 1010 10 16 0.00 0.00
6:38 pm 18:38 Mostly Cloudy 86 30 72 22.2 63 63 SE 18 30 29.81 1009 10 16 0.00 0.00
6:53 pm 18:53 Partly Cloudy 85 29.4 72 22.2 65 65 SE 16 26 29.88 1012 10 16 0.00 0.00
7:53 pm 19:53 Mostly Sunny 82 27.8 73 22.8 74 74 SE 15 24 29.89 1012 10 16 0.00 0.00
8:40 pm 20:40 Mostly Cloudy 80 26.7 73 22.8 79 79 SE 17 28 29.82 1010 10 16 0.00 0.00
8:53 pm 20:53 Mostly Sunny 80 26.7 73 22.8 79 79 SE 15 24 29.88 1012 10 16 0.00 0.00
9:53 pm 21:53 Mostly Clear 79 26.1 73 22.8 82 82 SE 15 24 29.90 1013 10 16 0.00 0.00
10:26 pm 22:26 Mostly Cloudy with Nearby Thunderstorms 78 25.6 74 23.3 87 87 SSE 15 24 29.84 1011 7 11 0.00 0.00
10:53 pm 22:53 Partly Cloudy 78 25.6 74 23.3 87 87 SE 15 24 29.89 1012 10 16 0.03 0.76
11:53 pm 23:53 Mostly Clear with Light Rain 77 25 73 22.8 88 88 SE 13 20 29.86 1011 10 16 0.03 0.76

Powered by AerisWeather